TimeCST,TemperatureF,Dew PointF,Humidity,Sea Level PressureIn,VisibilityMPH,Wind Direction,Wind SpeedMPH,Gust SpeedMPH,PrecipitationIn,Events,Conditions,WindDirDegrees,DateUTC
12:15 AM,58.8,57.2,94,30.05,1.0,Calm,Calm,-,N/A,,Mist,0,2012-12-06 06:15:00
12:35 AM,57.6,56.3,96,30.04,0.2,Calm,Calm,-,N/A,Fog,Fog,0,2012-12-06 06:35:00
12:55 AM,57.2,55.9,96,30.04,0.2,Calm,Calm,-,N/A,Fog,Fog,0,2012-12-06 06:55:00
1:15 AM,53.4,52.3,96,30.03,0.2,Calm,Calm,-,N/A,Fog,Fog,0,2012-12-06 07:15:00
1:35 AM,52.2,51.1,96,30.02,0.2,Calm,Calm,-,N/A,Fog,Fog,0,2012-12-06 07:35:00
1:55 AM,51.4,50.4,96,30.01,0.2,Calm,Calm,-,N/A,Fog,Fog,0,2012-12-06 07:55:00
2:15 AM,49.1,47.8,95,30.02,1.0,Calm,Calm,-,N/A,,Mostly Cloudy,0,2012-12-06 08:15:00
2:35 AM,49.5,48.6,97,30.01,0.2,Calm,Calm,-,N/A,Fog,Fog,0,2012-12-06 08:35:00
2:55 AM,50.5,49.6,97,30.01,0.2,Calm,Calm,-,N/A,Fog,Fog,0,2012-12-06 08:55:00
3:15 AM,50.0,49.1,97,30.00,0.2,Calm,Calm,-,N/A,Fog,Fog,0,2012-12-06 09:15:00
3:35 AM,50.2,49.3,97,30.00,0.2,NW,4.6,-,N/A,Fog,Fog,310,2012-12-06 09:35:00
3:55 AM,51.6,50.7,97,29.99,0.2,NNW,3.5,-,N/A,,Light Drizzle,330,2012-12-06 09:55:00
4:15 AM,52.5,51.6,97,29.99,0.2,NW,3.5,-,N/A,Fog,Fog,310,2012-12-06 10:15:00
4:35 AM,53.2,52.3,97,29.98,0.2,Calm,Calm,-,N/A,,Drizzle,0,2012-12-06 10:35:00
4:55 AM,53.2,52.3,97,29.98,0.2,Calm,Calm,-,N/A,,Light Drizzle,0,2012-12-06 10:55:00
5:15 AM,53.1,52.2,97,29.97,0.2,Calm,Calm,-,N/A,Fog,Fog,0,2012-12-06 11:15:00
5:35 AM,52.5,51.6,97,29.97,0.2,North,3.5,-,N/A,Fog,Fog,360,2012-12-06 11:35:00
5:55 AM,52.0,51.1,97,29.98,0.2,NNW,4.6,-,N/A,Fog,Fog,340,2012-12-06 11:55:00
6:15 AM,52.9,52.0,97,29.98,0.2,North,3.5,-,N/A,Fog,Fog,360,2012-12-06 12:15:00
6:35 AM,52.7,51.8,97,29.99,0.2,NNW,4.6,-,N/A,Fog,Fog,340,2012-12-06 12:35:00
6:55 AM,52.2,51.3,97,29.99,1.0,North,4.6,-,N/A,,Overcast,10,2012-12-06 12:55:00
7:15 AM,52.7,51.8,97,29.99,0.2,North,4.6,-,N/A,Fog,Fog,10,2012-12-06 13:15:00
7:35 AM,52.7,51.8,97,29.99,0.2,North,3.5,-,N/A,Fog,Fog,10,2012-12-06 13:35:00
7:55 AM,52.9,52.2,97,30.00,1.2,North,3.5,-,N/A,,Overcast,360,2012-12-06 13:55:00
8:15 AM,53.2,52.7,98,30.01,1.0,NNW,5.8,-,N/A,,Overcast,340,2012-12-06 14:15:00
8:35 AM,53.8,53.1,97,30.02,1.8,NW,4.6,-,N/A,,Overcast,320,2012-12-06 14:35:00
8:55 AM,54.7,53.8,97,30.02,0.2,North,6.9,-,N/A,Fog,Fog,360,2012-12-06 14:55:00
9:15 AM,56.1,55.4,97,30.02,4.0,North,5.8,-,N/A,,Mostly Cloudy,350,2012-12-06 15:15:00
9:35 AM,57.4,56.5,97,30.01,7.0,North,3.5,-,N/A,,Clear,10,2012-12-06 15:35:00
9:55 AM,60.4,58.1,92,30.02,7.0,Calm,Calm,-,N/A,,Clear,0,2012-12-06 15:55:00
10:15 AM,63.7,58.8,84,30.01,10.0,Calm,Calm,-,N/A,,Clear,0,2012-12-06 16:15:00
10:35 AM,66.2,59.4,79,30.00,10.0,Calm,Calm,-,N/A,,Clear,0,2012-12-06 16:35:00
10:55 AM,69.3,59.2,70,29.99,10.0,Calm,Calm,-,N/A,,Clear,0,2012-12-06 16:55:00
11:15 AM,71.4,58.6,64,29.98,10.0,East,3.5,-,N/A,,Clear,80,2012-12-06 17:15:00
11:35 AM,72.9,57.4,58,29.97,10.0,Calm,Calm,-,N/A,,Clear,0,2012-12-06 17:35:00
11:55 AM,74.1,54.0,49,29.96,10.0,SSE,4.6,-,N/A,,Clear,150,2012-12-06 17:55:00
12:15 PM,75.4,53.1,46,29.95,10.0,Calm,Calm,-,N/A,,Clear,0,2012-12-06 18:15:00
12:35 PM,77.0,52.5,42,29.94,10.0,South,5.8,-,N/A,,Clear,170,2012-12-06 18:35:00
12:55 PM,77.2,50.2,39,29.92,10.0,SE,4.6,-,N/A,,Clear,130,2012-12-06 18:55:00
1:15 PM,78.3,50.5,38,29.91,10.0,SE,5.8,-,N/A,,Clear,140,2012-12-06 19:15:00
1:35 PM,78.6,49.1,35,29.90,10.0,SSE,8.1,-,N/A,,Clear,160,2012-12-06 19:35:00
1:55 PM,79.2,47.8,33,29.89,10.0,SSE,5.8,-,N/A,,Clear,160,2012-12-06 19:55:00
2:15 PM,80.1,47.7,32,29.88,10.0,ESE,4.6,-,N/A,,Clear,110,2012-12-06 20:15:00
2:35 PM,80.6,47.7,31,29.87,10.0,SSE,5.8,-,N/A,,Clear,150,2012-12-06 20:35:00
2:55 PM,81.3,45.0,28,29.87,10.0,SSE,5.8,-,N/A,,Clear,160,2012-12-06 20:55:00
3:15 PM,81.5,48.2,31,29.87,10.0,SSE,8.1,16.1,N/A,,Clear,150,2012-12-06 21:15:00
3:35 PM,81.5,49.3,32,29.86,10.0,ESE,6.9,-,N/A,,Clear,110,2012-12-06 21:35:00
3:55 PM,80.1,60.3,51,29.85,10.0,East,10.4,-,N/A,,Clear,90,2012-12-06 21:55:00
4:15 PM,79.2,58.6,49,29.85,10.0,ESE,15.0,19.6,N/A,,Clear,110,2012-12-06 22:15:00
4:55 PM,76.6,60.8,58,29.85,10.0,East,15.0,18.4,N/A,,Clear,100,2012-12-06 22:55:00
5:15 PM,74.8,60.3,60,29.85,10.0,ESE,13.8,-,N/A,,Clear,120,2012-12-06 23:15:00
5:35 PM,73.2,60.8,65,29.85,10.0,ESE,16.1,-,N/A,,Clear,120,2012-12-06 23:35:00
5:55 PM,71.6,61.5,70,29.86,10.0,ESE,12.7,-,N/A,,Clear,120,2012-12-06 23:55:00
6:15 PM,70.5,62.2,75,29.87,10.0,ESE,10.4,-,N/A,,Clear,120,2012-12-07 00:15:00
6:35 PM,69.8,62.2,77,29.87,10.0,SE,10.4,-,N/A,,Clear,130,2012-12-07 00:35:00
6:55 PM,69.1,62.4,79,29.87,10.0,SE,11.5,-,N/A,,Clear,130,2012-12-07 00:55:00
7:15 PM,68.4,62.6,82,29.87,10.0,SE,9.2,-,N/A,,Clear,130,2012-12-07 01:15:00
7:35 PM,68.0,62.8,83,29.87,10.0,ESE,10.4,-,N/A,,Clear,120,2012-12-07 01:35:00
7:55 PM,67.3,62.6,85,29.87,10.0,ESE,9.2,-,N/A,,Clear,120,2012-12-07 01:55:00
8:35 PM,66.2,62.1,86,29.87,10.0,ESE,6.9,-,N/A,,Clear,120,2012-12-07 02:35:00
8:55 PM,65.8,62.1,88,29.88,10.0,SE,5.8,-,N/A,,Clear,130,2012-12-07 02:55:00
9:15 PM,64.8,61.2,88,29.88,10.0,SE,5.8,-,N/A,,Clear,130,2012-12-07 03:15:00
9:35 PM,64.4,61.0,89,29.88,10.0,SE,5.8,-,N/A,,Clear,130,2012-12-07 03:35:00
9:55 PM,64.0,60.8,89,29.88,10.0,SE,5.8,-,N/A,,Clear,130,2012-12-07 03:55:00
10:15 PM,63.5,60.4,90,29.88,10.0,ESE,4.6,-,N/A,,Clear,120,2012-12-07 04:15:00
10:35 PM,62.2,59.4,90,29.88,10.0,SE,5.8,-,N/A,,Clear,130,2012-12-07 04:35:00
10:55 PM,62.6,59.7,90,29.87,10.0,ESE,5.8,-,N/A,,Clear,120,2012-12-07 04:55:00
11:15 PM,62.2,59.9,92,29.87,10.0,SE,6.9,-,N/A,,Clear,130,2012-12-07 05:15:00
11:35 PM,63.3,61.0,92,29.87,10.0,SE,6.9,-,N/A,,Clear,130,2012-12-07 05:35:00
11:55 PM,63.0,60.8,93,29.87,10.0,ESE,5.8,-,N/A,,Clear,110,2012-12-07 05:55:00